| time (UTC) | temp C | wind direction | speed KPH | gust KPH | rain 1hr cm | rain 24hr cm | rain mn cm | humidity % | barometer mb |
| 20260510083055 | 17 | 165 | 1.6 | 3.2 | 0.00 | 0.00 | 0.00 | 91 | 1014.1 |
| 20260510082552 | 17 | 73 | 1.6 | 1.6 | 0.00 | 0.00 | 0.00 | 91 | 1013.9 |
| 20260510082048 | 17 | 172 | 0.0 | 3.2 | 0.00 | 0.00 | 0.00 | 90 | 1013.9 |
| 20260510081543 | 17 | 120 | 6.4 | 6.4 | 0.00 | 0.00 | 0.00 | 90 | 1014.1 |
| 20260510081039 | 17 | 122 | 0.0 | 4.8 | 0.00 | 0.00 | 0.00 | 89 | 1014.3 |
| 20260510080538 | 17 | 170 | 3.2 | 3.2 | 0.00 | 0.00 | 0.00 | 88 | 1014.6 |
| 20260510080035 | 17 | 141 | 3.2 | 3.2 | 0.00 | 0.00 | 0.00 | 86 | 1014.7 |
| 20260510075532 | 17 | 269 | 0.0 | 0.0 | 0.00 | 0.00 | 0.00 | 87 | 1014.9 |
| 20260510075029 | 17 | 327 | 0.0 | 0.0 | 0.00 | 0.00 | 0.00 | 85 | 1014.5 |
| 20260510074527 | 17 | 135 | 0.0 | 3.2 | 0.00 | 0.00 | 0.00 | 84 | 1014.6 |
| 20260510074022 | 17 | 140 | 1.6 | 3.2 | 0.00 | 0.00 | 0.00 | 85 | 1014.6 |
| 20260510073518 | 18 | 144 | 3.2 | 3.2 | 0.00 | 0.00 | 0.00 | 85 | 1014.5 |
| 20260510073015 | 18 | 240 | 0.0 | 3.2 | 0.00 | 0.00 | 0.00 | 83 | 1014.7 |
| 20260510072512 | 18 | 213 | 3.2 | 3.2 | 0.00 | 0.00 | 0.00 | 83 | 1014.4 |
| 20260510072007 | 18 | 225 | 1.6 | 3.2 | 0.00 | 0.00 | 0.00 | 83 | 1014.4 |
| 20260510071504 | 17 | 226 | 0.0 | 3.2 | 0.00 | 0.00 | 0.00 | 83 | 1014.4 |
| 20260510071002 | 17 | 240 | 0.0 | 3.2 | 0.00 | 0.00 | 0.00 | 83 | 1014.4 |
| 20260510070459 | 18 | 121 | 1.6 | 3.2 | 0.00 | 0.00 | 0.00 | 83 | 1014.5 |
| 20260510065954 | 18 | 241 | 0.0 | 3.2 | 0.00 | 0.00 | 0.00 | 83 | 1014.2 |
| 20260510065452 | 18 | 120 | 0.0 | 1.6 | 0.00 | 0.00 | 0.00 | 83 | 1014.3 |
| 20260510064948 | 18 | 202 | 3.2 | 4.8 | 0.00 | 0.00 | 0.00 | 84 | 1013.9 |
| 20260510064445 | 17 | 214 | 0.0 | 1.6 | 0.00 | 0.00 | 0.00 | 83 | 1014.0 |
| 20260510063942 | 18 | 215 | 0.0 | 3.2 | 0.00 | 0.00 | 0.00 | 84 | 1014.2 |
| 20260510063438 | 18 | 216 | 0.0 | 1.6 | 0.00 | 0.00 | 0.00 | 83 | 1013.9 |
| 20260510062936 | 18 | 227 | 1.6 | 3.2 | 0.00 | 0.00 | 0.00 | 82 | 1014.1 |
| 20260510062430 | 18 | 193 | 0.0 | 3.2 | 0.00 | 0.00 | 0.00 | 82 | 1014.1 |
| 20260510061926 | 18 | 207 | 3.2 | 4.8 | 0.00 | 0.00 | 0.00 | 83 | 1014.1 |
| 20260510061423 | 18 | 221 | 3.2 | 4.8 | 0.00 | 0.00 | 0.00 | 82 | 1013.9 |
| 20260510060919 | 18 | 185 | 0.0 | 3.2 | 0.00 | 0.00 | 0.00 | 82 | 1013.8 |
| 20260510060416 | 18 | 241 | 0.0 | 4.8 | 0.00 | 0.00 | 0.00 | 82 | 1013.8 |
| 20260510055912 | 18 | 223 | 3.2 | 6.4 | 0.00 | 0.00 | 0.00 | 85 | 1013.6 |
| 20260510055408 | 19 | 214 | 1.6 | 3.2 | 0.00 | 0.00 | 0.00 | 84 | 1013.5 |
| 20260510054906 | 19 | 190 | 0.0 | 4.8 | 0.00 | 0.00 | 0.00 | 85 | 1013.5 |
| 20260510054401 | 19 | 142 | 0.0 | 3.2 | 0.00 | 0.00 | 0.00 | 84 | 1013.6 |
| 20260510053857 | 20 | 133 | 0.0 | 3.2 | 0.00 | 0.00 | 0.00 | 82 | 1013.4 |
| 20260510053352 | 20 | 166 | 1.6 | 3.2 | 0.00 | 0.00 | 0.00 | 82 | 1013.7 |
| 20260510052849 | 20 | 123 | 0.0 | 0.0 | 0.00 | 0.00 | 0.00 | 80 | 1013.6 |
| 20260510052345 | 20 | 252 | 3.2 | 3.2 | 0.00 | 0.00 | 0.00 | 78 | 1013.5 |
| 20260510051841 | 20 | 173 | 1.6 | 3.2 | 0.00 | 0.00 | 0.00 | 77 | 1013.3 |
| 20260510051338 | 20 | 176 | 0.0 | 4.8 | 0.00 | 0.00 | 0.00 | 77 | 1013.3 |
| 20260510050835 | 20 | 195 | 0.0 | 3.2 | 0.00 | 0.00 | 0.00 | 77 | 1013.3 |
| 20260510050331 | 20 | 222 | 3.2 | 4.8 | 0.00 | 0.00 | 0.00 | 76 | 1013.2 |
| 20260510045829 | 21 | 204 | 4.8 | 6.4 | 0.00 | 0.00 | 0.00 | 77 | 1013.3 |
| 20260510045325 | 21 | 254 | 4.8 | 4.8 | 0.00 | 0.00 | 0.00 | 75 | 1013.2 |
| 20260510044823 | 21 | 231 | 6.4 | 8.0 | 0.00 | 0.00 | 0.00 | 75 | 1012.9 |
| 20260510044319 | 21 | 240 | 3.2 | 3.2 | 0.00 | 0.00 | 0.00 | 75 | 1013.0 |
| 20260510043816 | 22 | 210 | 1.6 | 3.2 | 0.00 | 0.00 | 0.00 | 74 | 1012.7 |
| 20260510043312 | 22 | 274 | 6.4 | 6.4 | 0.00 | 0.00 | 0.00 | 71 | 1012.7 |
| 20260510042810 | 22 | 355 | 3.2 | 3.2 | 0.00 | 0.00 | 0.00 | 70 | 1012.6 |
| 20260510042307 | 23 | 258 | 3.2 | 6.4 | 0.00 | 0.00 | 0.00 | 71 | 1012.6 |
| 20260510041801 | 23 | 156 | 6.4 | 8.0 | 0.00 | 0.00 | 0.00 | 69 | 1012.6 |
| 20260510041259 | 23 | 249 | 6.4 | 6.4 | 0.00 | 0.00 | 0.00 | 68 | 1012.6 |
| 20260510040757 | 23 | 165 | 3.2 | 8.0 | 0.00 | 0.00 | 0.00 | 68 | 1012.7 |
| 20260510040253 | 23 | 228 | 3.2 | 4.8 | 0.00 | 0.00 | 0.00 | 68 | 1012.5 |
| 20260510035749 | 23 | 175 | 1.6 | 6.4 | 0.00 | 0.00 | 0.00 | 68 | 1012.5 |
| 20260510035244 | 23 | 194 | 4.8 | 6.4 | 0.00 | 0.00 | 0.00 | 67 | 1012.5 |
| 20260510034740 | 23 | 237 | 3.2 | 6.4 | 0.00 | 0.00 | 0.00 | 67 | 1012.2 |
| 20260510034238 | 23 | 195 | 4.8 | 9.7 | 0.00 | 0.00 | 0.00 | 66 | 1012.2 |
| 20260510033734 | 23 | 120 | 3.2 | 6.4 | 0.00 | 0.00 | 0.00 | 65 | 1012.1 |
| 20260510033232 | 23 | 173 | 3.2 | 8.0 | 0.00 | 0.00 | 0.00 | 64 | 1011.9 |
| 20260510032728 | 23 | 157 | 4.8 | 6.4 | 0.00 | 0.00 | 0.00 | 63 | 1011.8 |
| 20260510032224 | 23 | 175 | 3.2 | 4.8 | 0.00 | 0.00 | 0.00 | 62 | 1011.8 |
| 20260510031719 | 23 | 191 | 3.2 | 6.4 | 0.00 | 0.00 | 0.00 | 58 | 1011.9 |
| 20260510031216 | 22 | 168 | 3.2 | 3.2 | 0.00 | 0.00 | 0.00 | 56 | 1011.9 |
| 20260510030715 | 22 | 135 | 3.2 | 6.4 | 0.00 | 0.00 | 0.00 | 52 | 1011.8 |
| 20260510030213 | 22 | 98 | 1.6 | 3.2 | 0.00 | 0.00 | 0.00 | 53 | 1012.0 |
| 20260510025710 | 21 | 143 | 1.6 | 8.0 | 0.00 | 0.00 | 0.00 | 53 | 1011.7 |
| 20260510025207 | 20 | 173 | 0.0 | 3.2 | 0.00 | 0.00 | 0.00 | 53 | 1012.1 |
| 20260510024704 | 18 | 302 | 0.0 | 3.2 | 0.00 | 0.00 | 0.00 | 59 | 1011.7 |
| 20260510024200 | 18 | 158 | 0.0 | 1.6 | 0.00 | 0.00 | 0.00 | 64 | 1011.8 |
| 20260510023656 | 18 | 120 | 1.6 | 1.6 | 0.00 | 0.00 | 0.00 | 69 | 1011.7 |
| 20260510023154 | 18 | 103 | 0.0 | 3.2 | 0.00 | 0.00 | 0.00 | 69 | 1011.5 |
| 20260510022649 | 18 | 113 | 0.0 | 1.6 | 0.00 | 0.00 | 0.00 | 69 | 1011.6 |
| 20260510022144 | 17 | 55 | 0.0 | 1.6 | 0.00 | 0.00 | 0.00 | 69 | 1011.3 |
| 20260510021640 | 17 | 103 | 0.0 | 0.0 | 0.00 | 0.00 | 0.00 | 72 | 1011.2 |
| 20260510021138 | 17 | 110 | 0.0 | 1.6 | 0.00 | 0.00 | 0.00 | 74 | 1011.4 |
| 20260510020638 | 18 | 71 | 0.0 | 0.0 | 0.00 | 0.00 | 0.00 | 76 | 1011.3 |
| 20260510020133 | 18 | 89 | 0.0 | 3.2 | 0.00 | 0.00 | 0.00 | 73 | 1011.1 |
| 20260510015629 | 18 | 135 | 0.0 | 3.2 | 0.00 | 0.00 | 0.00 | 71 | 1011.1 |
| 20260510015126 | 19 | 61 | 1.6 | 1.6 | 0.00 | 0.00 | 0.00 | 65 | 1010.9 |
| 20260510014621 | 20 | 89 | 0.0 | 1.6 | 0.00 | 0.00 | 0.00 | 63 | 1010.8 |
| 20260510014119 | 20 | 89 | 0.0 | 3.2 | 0.00 | 0.00 | 0.00 | 63 | 1010.8 |
| 20260510013619 | 20 | 135 | 0.0 | 1.6 | 0.00 | 0.00 | 0.00 | 65 | 1010.7 |
| 20260510013115 | 20 | 89 | 0.0 | 3.2 | 0.00 | 0.00 | 0.00 | 66 | 1010.8 |
| 20260510012614 | 20 | 146 | 0.0 | 0.0 | 0.00 | 0.00 | 0.00 | 62 | 1010.5 |
| 20260510012111 | 21 | 212 | 0.0 | 0.0 | 0.00 | 0.00 | 0.00 | 61 | 1010.6 |
| 20260510011610 | 21 | 142 | 0.0 | 1.6 | 0.00 | 0.00 | 0.00 | 65 | 1010.5 |
| 20260510011106 | 21 | 210 | 0.0 | 3.2 | 0.00 | 0.00 | 0.00 | 62 | 1010.6 |
| 20260510010603 | 21 | 181 | 0.0 | 3.2 | 0.00 | 0.00 | 0.00 | 63 | 1010.5 |
| 20260510010100 | 21 | 168 | 1.6 | 3.2 | 0.00 | 0.00 | 0.00 | 64 | 1010.5 |
| 20260510005555 | 22 | 192 | 0.0 | 3.2 | 0.00 | 0.00 | 0.00 | 63 | 1010.4 |
| 20260510005054 | 22 | 185 | 1.6 | 3.2 | 0.00 | 0.00 | 0.00 | 63 | 1010.3 |
| 20260510004551 | 22 | 165 | 3.2 | 3.2 | 0.00 | 0.00 | 0.00 | 61 | 1010.5 |
| 20260510004049 | 23 | 198 | 3.2 | 3.2 | 0.00 | 0.00 | 0.00 | 60 | 1010.3 |
| 20260510003545 | 23 | 175 | 1.6 | 3.2 | 0.00 | 0.00 | 0.00 | 61 | 1010.4 |
| 20260510003041 | 23 | 177 | 1.6 | 3.2 | 0.00 | 0.00 | 0.00 | 57 | 1010.3 |
| 20260510002536 | 24 | 177 | 3.2 | 3.2 | 0.00 | 0.00 | 0.00 | 54 | 1010.4 |
| 20260510002034 | 25 | 211 | 1.6 | 3.2 | 0.00 | 0.00 | 0.00 | 53 | 1010.4 |
| 20260510001531 | 25 | 198 | 1.6 | 3.2 | 0.00 | 0.00 | 0.00 | 53 | 1010.3 |
| 20260510001029 | 26 | 217 | 0.0 | 3.2 | 0.00 | 0.00 | 0.00 | 47 | 1010.3 |
| 20260510000524 | 26 | 227 | 1.6 | 3.2 | 0.00 | 0.00 | 0.00 | 46 | 1010.3 |
| 20260510000021 | 27 | 216 | 3.2 | 3.2 | 0.00 | 0.00 | 0.00 | 44 | 1010.3 |
| 20260509235518 | 28 | 200 | 3.2 | 3.2 | 0.00 | 0.00 | 0.00 | 41 | 1010.3 |
| 20260509235014 | 29 | 220 | 3.2 | 3.2 | 0.00 | 0.00 | 0.00 | 41 | 1010.4 |
| 20260509234511 | 30 | 186 | 1.6 | 3.2 | 0.00 | 0.00 | 0.00 | 39 | 1010.3 |
| 20260509234009 | 31 | 128 | 0.0 | 3.2 | 0.00 | 0.00 | 0.00 | 33 | 1010.3 |
| 20260509233501 | 31 | 105 | 0.0 | 0.0 | 0.00 | 0.00 | 0.00 | 37 | 1010.3 |
| 20260509232957 | 31 | 224 | 0.0 | 0.0 | 0.00 | 0.00 | 0.00 | 32 | 1010.2 |
| 20260509232455 | 31 | 44 | 0.0 | 1.6 | 0.00 | 0.00 | 0.00 | 31 | 1010.2 |
| 20260509231950 | 30 | 129 | 0.0 | 1.6 | 0.00 | 0.00 | 0.00 | 34 | 1010.2 |
| 20260509231447 | 30 | 133 | 1.6 | 3.2 | 0.00 | 0.00 | 0.00 | 31 | 1010.2 |
| 20260509230945 | 30 | 19 | 0.0 | 1.6 | 0.00 | 0.00 | 0.00 | 33 | 1010.3 |
| 20260509230442 | 30 | 13 | 4.8 | 4.8 | 0.00 | 0.00 | 0.00 | 29 | 1010.4 |
| 20260509225938 | 30 | 0 | 0.0 | 1.6 | 0.00 | 0.00 | 0.00 | 33 | 1010.2 |
| 20260509225435 | 31 | 11 | 3.2 | 3.2 | 0.00 | 0.00 | 0.00 | 32 | 1010.3 |
| 20260509224931 | 32 | 323 | 0.0 | 3.2 | 0.00 | 0.00 | 0.00 | 26 | 1010.3 |
| 20260509224426 | 32 | 216 | 3.2 | 3.2 | 0.00 | 0.00 | 0.00 | 24 | 1010.1 |
| 20260509223923 | 30 | 349 | 1.6 | 3.2 | 0.00 | 0.00 | 0.00 | 26 | 1010.1 |
| 20260509223420 | 30 | 83 | 3.2 | 4.8 | 0.00 | 0.00 | 0.00 | 29 | 1010.2 |
| 20260509222918 | 31 | 141 | 0.0 | 3.2 | 0.00 | 0.00 | 0.00 | 29 | 1010.0 |
| 20260509222412 | 30 | 110 | 0.0 | 3.2 | 0.00 | 0.00 | 0.00 | 26 | 1010.1 |
| 20260509221907 | 31 | 269 | 0.0 | 3.2 | 0.00 | 0.00 | 0.00 | 29 | 1010.1 |
| 20260509221405 | 30 | 323 | 3.2 | 3.2 | 0.00 | 0.00 | 0.00 | 27 | 1010.3 |
| 20260509220901 | 30 | 88 | 3.2 | 4.8 | 0.00 | 0.00 | 0.00 | 28 | 1010.1 |
| 20260509220356 | 30 | 31 | 1.6 | 4.8 | 0.00 | 0.00 | 0.00 | 31 | 1010.2 |
| 20260509215852 | 30 | 66 | 3.2 | 6.4 | 0.00 | 0.00 | 0.00 | 30 | 1010.0 |
| 20260509215343 | 30 | 60 | 0.0 | 3.2 | 0.00 | 0.00 | 0.00 | 28 | 1010.0 |
| 20260509214840 | 30 | 138 | 3.2 | 8.0 | 0.00 | 0.00 | 0.00 | 26 | 1010.1 |
| 20260509214337 | 30 | 89 | 4.8 | 4.8 | 0.00 | 0.00 | 0.00 | 29 | 1010.0 |
| 20260509213834 | 30 | 142 | 0.0 | 4.8 | 0.00 | 0.00 | 0.00 | 29 | 1010.2 |
| 20260509213330 | 30 | 57 | 3.2 | 4.8 | 0.00 | 0.00 | 0.00 | 26 | 1010.2 |
| 20260509212827 | 30 | 343 | 3.2 | 4.8 | 0.00 | 0.00 | 0.00 | 31 | 1010.3 |
| 20260509212325 | 29 | 19 | 3.2 | 8.0 | 0.00 | 0.00 | 0.00 | 33 | 1010.3 |
| 20260509211821 | 29 | 39 | 6.4 | 8.0 | 0.00 | 0.00 | 0.00 | 30 | 1010.4 |
| 20260509211317 | 29 | 53 | 3.2 | 6.4 | 0.00 | 0.00 | 0.00 | 33 | 1010.4 |
| 20260509210814 | 29 | 38 | 3.2 | 8.0 | 0.00 | 0.00 | 0.00 | 33 | 1010.4 |
| 20260509210312 | 30 | 352 | 3.2 | 4.8 | 0.00 | 0.00 | 0.00 | 36 | 1010.6 |
| 20260509205810 | 28 | 8 | 8.0 | 11.3 | 0.00 | 0.00 | 0.00 | 32 | 1010.5 |
| 20260509205307 | 29 | 12 | 8.0 | 9.7 | 0.00 | 0.00 | 0.00 | 35 | 1010.6 |
| 20260509204803 | 29 | 40 | 4.8 | 9.7 | 0.00 | 0.00 | 0.00 | 33 | 1010.7 |
| 20260509204259 | 28 | 1 | 4.8 | 11.3 | 0.00 | 0.00 | 0.00 | 37 | 1010.7 |
| 20260509203755 | 28 | 62 | 8.0 | 9.7 | 0.00 | 0.00 | 0.00 | 37 | 1010.7 |
| 20260509203252 | 28 | 350 | 3.2 | 8.0 | 0.00 | 0.00 | 0.00 | 34 | 1010.6 |
| 20260509202748 | 28 | 43 | 6.4 | 12.9 | 0.00 | 0.00 | 0.00 | 37 | 1010.6 |
| 20260509202244 | 29 | 7 | 12.9 | 12.9 | 0.00 | 0.00 | 0.00 | 41 | 1011.0 |
| 20260509201738 | 29 | 40 | 6.4 | 9.7 | 0.00 | 0.00 | 0.00 | 40 | 1011.0 |
| 20260509201235 | 29 | 40 | 9.7 | 9.7 | 0.00 | 0.00 | 0.00 | 40 | 1011.0 |
| 20260509200731 | 28 | 86 | 3.2 | 8.0 | 0.00 | 0.00 | 0.00 | 43 | 1011.0 |
| 20260509200227 | 28 | 121 | 3.2 | 9.7 | 0.00 | 0.00 | 0.00 | 37 | 1011.0 |
| 20260509195723 | 28 | 114 | 4.8 | 9.7 | 0.00 | 0.00 | 0.00 | 36 | 1011.1 |
| 20260509195219 | 28 | 64 | 6.4 | 8.0 | 0.00 | 0.00 | 0.00 | 38 | 1011.2 |
| 20260509194719 | 29 | 322 | 3.2 | 4.8 | 0.00 | 0.00 | 0.00 | 41 | 1011.2 |
| 20260509194215 | 28 | 13 | 6.4 | 8.0 | 0.00 | 0.00 | 0.00 | 46 | 1011.1 |
| 20260509193712 | 28 | 10 | 6.4 | 8.0 | 0.00 | 0.00 | 0.00 | 41 | 1011.1 |
| 20260509193212 | 28 | 5 | 3.2 | 9.7 | 0.00 | 0.00 | 0.00 | 38 | 1011.2 |
| 20260509192709 | 28 | 340 | 3.2 | 8.0 | 0.00 | 0.00 | 0.00 | 38 | 1011.2 |
| 20260509192204 | 28 | 60 | 3.2 | 6.4 | 0.00 | 0.00 | 0.00 | 40 | 1011.3 |
| 20260509191659 | 28 | 354 | 4.8 | 8.0 | 0.00 | 0.00 | 0.00 | 37 | 1011.4 |
| 20260509191156 | 28 | 52 | 8.0 | 9.7 | 0.00 | 0.00 | 0.00 | 43 | 1011.2 |
| 20260509190652 | 28 | 68 | 6.4 | 14.5 | 0.00 | 0.00 | 0.00 | 40 | 1011.3 |
| 20260509190149 | 28 | 135 | 3.2 | 8.0 | 0.00 | 0.00 | 0.00 | 42 | 1011.4 |
| 20260509185647 | 28 | 91 | 6.4 | 12.9 | 0.00 | 0.00 | 0.00 | 44 | 1011.3 |
| 20260509185143 | 28 | 45 | 3.2 | 6.4 | 0.00 | 0.00 | 0.00 | 49 | 1011.5 |
| 20260509184641 | 28 | 355 | 4.8 | 6.4 | 0.00 | 0.00 | 0.00 | 42 | 1011.6 |
| 20260509184137 | 28 | 101 | 3.2 | 8.0 | 0.00 | 0.00 | 0.00 | 45 | 1011.5 |
| 20260509183634 | 28 | 40 | 4.8 | 9.7 | 0.00 | 0.00 | 0.00 | 43 | 1011.6 |
| 20260509183129 | 27 | 80 | 4.8 | 9.7 | 0.00 | 0.00 | 0.00 | 44 | 1011.7 |
| 20260509182625 | 27 | 76 | 3.2 | 12.9 | 0.00 | 0.00 | 0.00 | 47 | 1011.6 |
| 20260509182122 | 27 | 172 | 0.0 | 4.8 | 0.00 | 0.00 | 0.00 | 45 | 1011.5 |
| 20260509181620 | 27 | 352 | 1.6 | 8.0 | 0.00 | 0.00 | 0.00 | 51 | 1011.8 |
| 20260509181118 | 27 | 20 | 4.8 | 8.0 | 0.00 | 0.00 | 0.00 | 52 | 1011.9 |
| 20260509180614 | 27 | 161 | 3.2 | 8.0 | 0.00 | 0.00 | 0.00 | 51 | 1011.9 |
| 20260509180111 | 27 | 0 | 3.2 | 6.4 | 0.00 | 0.00 | 0.00 | 54 | 1011.7 |
| 20260509175606 | 27 | 131 | 3.2 | 6.4 | 0.00 | 0.00 | 0.00 | 52 | 1011.8 |
| 20260509175103 | 27 | 146 | 4.8 | 8.0 | 0.00 | 0.00 | 0.00 | 57 | 1011.9 |
| 20260509174559 | 27 | 230 | 6.4 | 6.4 | 0.00 | 0.00 | 0.00 | 55 | 1012.0 |
| 20260509174055 | 26 | 169 | 3.2 | 9.7 | 0.00 | 0.00 | 0.00 | 60 | 1012.1 |
| 20260509173550 | 26 | 280 | 4.8 | 8.0 | 0.00 | 0.00 | 0.00 | 61 | 1011.8 |
| 20260509173046 | 27 | 197 | 3.2 | 6.4 | 0.00 | 0.00 | 0.00 | 59 | 1012.1 |
| 20260509172544 | 26 | 218 | 4.8 | 8.0 | 0.00 | 0.00 | 0.00 | 59 | 1011.9 |
| 20260509172039 | 25 | 211 | 6.4 | 6.4 | 0.00 | 0.00 | 0.00 | 63 | 1012.1 |
| 20260509171535 | 26 | 258 | 4.8 | 8.0 | 0.00 | 0.00 | 0.00 | 65 | 1012.1 |
| 20260509171032 | 26 | 5 | 3.2 | 4.8 | 0.00 | 0.00 | 0.00 | 64 | 1012.0 |
| 20260509170527 | 26 | 88 | 3.2 | 4.8 | 0.00 | 0.00 | 0.00 | 63 | 1012.1 |
| 20260509170023 | 26 | 252 | 4.8 | 6.4 | 0.00 | 0.00 | 0.00 | 63 | 1012.0 |
| 20260509165522 | 26 | 324 | 0.0 | 3.2 | 0.00 | 0.00 | 0.00 | 61 | 1012.2 |
| 20260509165018 | 25 | 298 | 1.6 | 6.4 | 0.00 | 0.00 | 0.00 | 69 | 1012.1 |
| 20260509164514 | 25 | 8 | 4.8 | 6.4 | 0.00 | 0.00 | 0.00 | 68 | 1012.1 |
| 20260509164009 | 25 | 331 | 4.8 | 4.8 | 0.00 | 0.00 | 0.00 | 69 | 1012.2 |
| 20260509163508 | 25 | 323 | 6.4 | 8.0 | 0.00 | 0.00 | 0.00 | 68 | 1012.2 |
| 20260509163002 | 25 | 309 | 3.2 | 6.4 | 0.00 | 0.00 | 0.00 | 72 | 1012.5 |
| 20260509162500 | 25 | 239 | 6.4 | 9.7 | 0.00 | 0.00 | 0.00 | 68 | 1012.6 |
| 20260509161956 | 25 | 340 | 4.8 | 8.0 | 0.00 | 0.00 | 0.00 | 69 | 1012.2 |
| 20260509161453 | 25 | 246 | 6.4 | 12.9 | 0.00 | 0.00 | 0.00 | 68 | 1012.5 |
| 20260509160947 | 25 | 295 | 3.2 | 4.8 | 0.00 | 0.00 | 0.00 | 70 | 1012.5 |
| 20260509160444 | 25 | 4 | 3.2 | 6.4 | 0.00 | 0.00 | 0.00 | 67 | 1012.6 |
| 20260509155944 | 25 | 213 | 4.8 | 6.4 | 0.00 | 0.00 | 0.00 | 68 | 1012.3 |
| 20260509155441 | 25 | 218 | 6.4 | 8.0 | 0.00 | 0.00 | 0.00 | 68 | 1012.5 |
| 20260509154937 | 25 | 335 | 3.2 | 4.8 | 0.00 | 0.00 | 0.00 | 69 | 1012.3 |
| 20260509154434 | 24 | 341 | 3.2 | 6.4 | 0.00 | 0.00 | 0.00 | 73 | 1012.6 |
| 20260509153931 | 23 | 309 | 4.8 | 6.4 | 0.00 | 0.00 | 0.00 | 72 | 1012.2 |
| 20260509153428 | 23 | 334 | 4.8 | 6.4 | 0.00 | 0.00 | 0.00 | 70 | 1012.6 |
| 20260509152925 | 23 | 347 | 3.2 | 8.0 | 0.00 | 0.00 | 0.00 | 72 | 1012.3 |
| 20260509152421 | 23 | 312 | 3.2 | 12.9 | 0.00 | 0.00 | 0.00 | 72 | 1012.2 |
| 20260509151918 | 23 | 342 | 3.2 | 4.8 | 0.00 | 0.00 | 0.00 | 74 | 1012.3 |
| 20260509151414 | 23 | 246 | 4.8 | 9.7 | 0.00 | 0.00 | 0.00 | 73 | 1012.2 |
| 20260509150912 | 23 | 325 | 1.6 | 4.8 | 0.00 | 0.00 | 0.00 | 71 | 1012.3 |
| 20260509150409 | 23 | 291 | 3.2 | 6.4 | 0.00 | 0.00 | 0.00 | 73 | 1012.5 |
| 20260509145908 | 23 | 188 | 3.2 | 4.8 | 0.00 | 0.00 | 0.00 | 71 | 1012.2 |
| 20260509145407 | 24 | 352 | 3.2 | 3.2 | 0.00 | 0.00 | 0.00 | 71 | 1012.5 |
| 20260509144903 | 23 | 321 | 3.2 | 3.2 | 0.00 | 0.00 | 0.00 | 70 | 1012.5 |
| 20260509144400 | 22 | 352 | 1.6 | 4.8 | 0.00 | 0.00 | 0.00 | 72 | 1012.5 |
| 20260509143857 | 22 | 104 | 1.6 | 3.2 | 0.00 | 0.00 | 0.00 | 73 | 1012.5 |
| 20260509143355 | 22 | 340 | 1.6 | 6.4 | 0.00 | 0.00 | 0.00 | 79 | 1012.7 |
| 20260509142851 | 22 | 9 | 0.0 | 3.2 | 0.00 | 0.00 | 0.00 | 81 | 1012.6 |
| 20260509142347 | 22 | 324 | 3.2 | 6.4 | 0.00 | 0.00 | 0.00 | 81 | 1012.6 |
| 20260509141843 | 22 | 299 | 1.6 | 3.2 | 0.00 | 0.00 | 0.00 | 83 | 1012.7 |
| 20260509141340 | 21 | 247 | 4.8 | 4.8 | 0.00 | 0.00 | 0.00 | 82 | 1012.3 |
| 20260509140836 | 22 | 253 | 1.6 | 3.2 | 0.00 | 0.00 | 0.00 | 80 | 1012.5 |
| 20260509140334 | 22 | 173 | 1.6 | 3.2 | 0.00 | 0.00 | 0.00 | 81 | 1012.3 |
| 20260509135832 | 20 | 65 | 0.0 | 3.2 | 0.00 | 0.00 | 0.00 | 86 | 1012.5 |
| 20260509135329 | 20 | 350 | 1.6 | 3.2 | 0.00 | 0.00 | 0.00 | 85 | 1012.3 |
| 20260509134826 | 20 | 301 | 1.6 | 1.6 | 0.00 | 0.00 | 0.00 | 83 | 1012.3 |
| 20260509134323 | 20 | 89 | 0.0 | 3.2 | 0.00 | 0.00 | 0.00 | 85 | 1012.6 |
| 20260509133820 | 20 | 339 | 0.0 | 1.6 | 0.00 | 0.00 | 0.00 | 83 | 1012.6 |
| 20260509133316 | 19 | 329 | 0.0 | 3.2 | 0.00 | 0.00 | 0.00 | 86 | 1012.5 |
| 20260509132815 | 19 | 28 | 3.2 | 4.8 | 0.00 | 0.00 | 0.00 | 85 | 1012.3 |
| 20260509132314 | 19 | 332 | 1.6 | 3.2 | 0.00 | 0.00 | 0.00 | 84 | 1012.5 |
| 20260509131810 | 19 | 159 | 1.6 | 3.2 | 0.00 | 0.00 | 0.00 | 87 | 1012.2 |
| 20260509131307 | 18 | 239 | 3.2 | 4.8 | 0.00 | 0.00 | 0.00 | 90 | 1012.0 |
| 20260509130803 | 18 | 336 | 3.2 | 3.2 | 0.00 | 0.00 | 0.00 | 90 | 1012.1 |
| 20260509130259 | 17 | 69 | 1.6 | 3.2 | 0.00 | 0.00 | 0.00 | 96 | 1012.0 |
| 20260509125756 | 16 | 185 | 1.6 | 3.2 | 0.00 | 0.00 | 0.00 | 97 | 1012.0 |
| 20260509125252 | 16 | 156 | 1.6 | 3.2 | 0.00 | 0.00 | 0.00 | 99 | 1012.0 |
| 20260509124749 | 16 | 144 | 0.0 | 1.6 | 0.00 | 0.00 | 0.00 | 99 | 1011.8 |
| 20260509124245 | 16 | 149 | 3.2 | 3.2 | 0.00 | 0.00 | 0.00 | 99 | 1011.8 |
| 20260509123744 | 16 | 191 | 1.6 | 1.6 | 0.00 | 0.00 | 0.00 | 99 | 1011.8 |
| 20260509123241 | 15 | 217 | 0.0 | 1.6 | 0.00 | 0.00 | 0.00 | 99 | 1011.9 |
| 20260509122736 | 15 | 151 | 0.0 | 3.2 | 0.00 | 0.00 | 0.00 | 99 | 1011.7 |
| 20260509122233 | 14 | 187 | 1.6 | 3.2 | 0.00 | 0.00 | 0.00 | 99 | 1011.6 |
| 20260509121730 | 14 | 32 | 0.0 | 1.6 | 0.00 | 0.00 | 0.00 | 99 | 1011.6 |
| 20260509121227 | 14 | 186 | 0.0 | 3.2 | 0.00 | 0.00 | 0.00 | 99 | 1011.6 |
| 20260509120726 | 15 | 52 | 0.0 | 3.2 | 0.00 | 0.00 | 0.00 | 99 | 1011.4 |
| 20260509120223 | 14 | 135 | 0.0 | 3.2 | 0.00 | 0.00 | 0.00 | 99 | 1011.4 |
| 20260509115721 | 13 | 135 | 0.0 | 3.2 | 0.00 | 0.00 | 0.00 | 99 | 1011.3 |
| 20260509115218 | 13 | 189 | 1.6 | 4.8 | 0.00 | 0.00 | 0.00 | 99 | 1011.2 |
| 20260509114716 | 12 | 157 | 1.6 | 3.2 | 0.00 | 0.00 | 0.00 | 99 | 1011.2 |
| 20260509114214 | 12 | 16 | 0.0 | 1.6 | 0.00 | 0.00 | 0.00 | 99 | 1011.1 |
| 20260509113713 | 12 | 112 | 0.0 | 1.6 | 0.00 | 0.00 | 0.00 | 99 | 1011.2 |
| 20260509113210 | 12 | 119 | 0.0 | 1.6 | 0.00 | 0.00 | 0.00 | 99 | 1011.0 |
| 20260509112706 | 12 | 102 | 0.0 | 1.6 | 0.00 | 0.00 | 0.00 | 99 | 1011.0 |
| 20260509112203 | 12 | 49 | 3.2 | 3.2 | 0.00 | 0.00 | 0.00 | 99 | 1011.0 |
| 20260509111700 | 12 | 24 | 3.2 | 3.2 | 0.00 | 0.00 | 0.00 | 99 | 1010.8 |
| 20260509111157 | 12 | 226 | 1.6 | 3.2 | 0.00 | 0.00 | 0.00 | 99 | 1010.9 |
| 20260509110654 | 12 | 214 | 0.0 | 1.6 | 0.00 | 0.00 | 0.00 | 99 | 1010.9 |
| 20260509110151 | 12 | 115 | 1.6 | 3.2 | 0.00 | 0.00 | 0.00 | 99 | 1010.8 |
| 20260509105649 | 12 | 169 | 1.6 | 3.2 | 0.00 | 0.00 | 0.00 | 99 | 1010.6 |
| 20260509105146 | 13 | 148 | 0.0 | 1.6 | 0.00 | 0.00 | 0.00 | 99 | 1010.8 |
| 20260509104643 | 13 | 177 | 0.0 | 3.2 | 0.00 | 0.00 | 0.00 | 99 | 1010.7 |
| 20260509104140 | 13 | 175 | 3.2 | 4.8 | 0.00 | 0.00 | 0.00 | 99 | 1010.8 |
| 20260509103638 | 13 | 214 | 1.6 | 3.2 | 0.00 | 0.00 | 0.00 | 99 | 1010.7 |
| 20260509103136 | 13 | 187 | 1.6 | 3.2 | 0.00 | 0.00 | 0.00 | 99 | 1010.5 |
| 20260509102633 | 13 | 151 | 3.2 | 4.8 | 0.00 | 0.00 | 0.00 | 99 | 1010.6 |
| 20260509102130 | 13 | 53 | 0.0 | 3.2 | 0.00 | 0.00 | 0.00 | 99 | 1011.0 |
| 20260509101626 | 13 | 157 | 0.0 | 3.2 | 0.00 | 0.00 | 0.00 | 99 | 1010.8 |
| 20260509101123 | 13 | 157 | 0.0 | 3.2 | 0.00 | 0.00 | 0.00 | 99 | 1010.8 |
| 20260509100620 | 13 | 89 | 0.0 | 3.2 | 0.00 | 0.00 | 0.00 | 99 | 1010.7 |
| 20260509100118 | 13 | 106 | 0.0 | 0.0 | 0.00 | 0.00 | 0.00 | 99 | 1010.7 |
| 20260509095614 | 13 | 16 | 0.0 | 3.2 | 0.00 | 0.00 | 0.00 | 99 | 1010.7 |
| 20260509095111 | 13 | 169 | 3.2 | 3.2 | 0.00 | 0.00 | 0.00 | 99 | 1010.5 |
| 20260509094607 | 13 | 130 | 3.2 | 3.2 | 0.00 | 0.00 | 0.00 | 99 | 1010.5 |
| 20260509094105 | 13 | 150 | 0.0 | 3.2 | 0.00 | 0.00 | 0.00 | 99 | 1010.7 |
| 20260509093603 | 13 | 139 | 0.0 | 1.6 | 0.00 | 0.00 | 0.00 | 99 | 1010.6 |
| 20260509093100 | 13 | 161 | 1.6 | 1.6 | 0.00 | 0.00 | 0.00 | 99 | 1010.5 |
| 20260509092558 | 13 | 154 | 0.0 | 1.6 | 0.00 | 0.00 | 0.00 | 99 | 1010.6 |
| 20260509092056 | 13 | 128 | 0.0 | 3.2 | 0.00 | 0.00 | 0.00 | 99 | 1010.8 |
| 20260509091554 | 13 | 134 | 0.0 | 3.2 | 0.00 | 0.00 | 0.00 | 99 | 1010.5 |
| 20260509091050 | 13 | 152 | 1.6 | 3.2 | 0.00 | 0.00 | 0.00 | 99 | 1010.5 |
| 20260509090547 | 13 | 149 | 3.2 | 3.2 | 0.00 | 0.00 | 0.00 | 99 | 1010.7 |
| 20260509090045 | 13 | 146 | 3.2 | 3.2 | 0.00 | 0.00 | 0.00 | 99 | 1010.7 |
| 20260509085542 | 13 | 150 | 0.0 | 3.2 | 0.00 | 0.00 | 0.00 | 99 | 1010.8 |
| 20260509085038 | 13 | 146 | 3.2 | 3.2 | 0.00 | 0.00 | 0.00 | 99 | 1010.8 |
| 20260509084535 | 13 | 154 | 3.2 | 3.2 | 0.00 | 0.00 | 0.00 | 99 | 1011.1 |
| 20260509084032 | 13 | 149 | 3.2 | 3.2 | 0.00 | 0.00 | 0.00 | 99 | 1011.0 |
| 20260509083530 | 13 | 157 | 0.0 | 3.2 | 0.05 | 0.00 | 0.00 | 99 | 1011.0 |